This is the latest recevied weather packets stored in our database for station/object AA0PB. If no packets are shown the sender has not sent any weather packets the latest 10 day(s).
| Time | Temp. | Humidity | Pressure | Rain* | Wind** | Luminosity | Snow |
|---|---|---|---|---|---|---|---|
| 1777740222 | 12.22° C | 82% | 1016.7 hPa | 0 mm | - | 107 W/m² | - |
| 1777739918 | 12.22° C | 82% | 1016.7 hPa | 0 mm | - | 130 W/m² | - |
| 1777739614 | 12.22° C | 82% | 1016.9 hPa | 0 mm | - | 126 W/m² | - |
| 1777739312 | 12.78° C | 80% | 1017 hPa | 0 mm | - | 124 W/m² | - |
| 1777739008 | 12.78° C | 81% | 1016.9 hPa | 0 mm | - | 183 W/m² | - |
| 1777738706 | 12.78° C | 81% | 1017.1 hPa | 0 mm | - | 218 W/m² | - |
| 1777738401 | 12.22° C | 83% | 1016.9 hPa | 0 mm | - | 242 W/m² | - |
| 1777738100 | 11.67° C | 84% | 1016.9 hPa | 0 mm | - | 182 W/m² | - |
| 1777737798 | 11.67° C | 84% | 1017 hPa | 0 mm | - | 145 W/m² | - |
| 1777737497 | 12.22° C | 85% | 1016.9 hPa | 0 mm | - | 176 W/m² | - |
| 1777737194 | 11.67° C | 86% | 1016.8 hPa | 0 mm | - | 192 W/m² | - |
| 1777736889 | 11.67° C | 86% | 1016.5 hPa | 0 mm | - | 218 W/m² | - |
| 1777736276 | 11.11° C | 89% | 1016.8 hPa | 0 mm | - | 219 W/m² | - |
| 1777735973 | 10.56° C | 88% | 1017 hPa | 0 mm | - | 165 W/m² | - |
| 1777735670 | 10.56° C | 90% | 1016.8 hPa | 0 mm | - | 123 W/m² | - |
| 1777735368 | 10.56° C | 89% | 1016.8 hPa | 0 mm | - | 106 W/m² | - |
| 1777735065 | 10.56° C | 89% | 1016.7 hPa | 0 mm | - | 76 W/m² | - |
| 1777734762 | 10° C | 89% | 1016.8 hPa | 0 mm | - | 47 W/m² | - |
| 1777734460 | 10° C | 88% | 1016.6 hPa | 0 mm | - | 28 W/m² | - |
| 1777734156 | 10° C | 87% | 1016 hPa | 0 mm | - | 24 W/m² | - |
| 1777733852 | 10° C | 86% | 1016.3 hPa | 0 mm | - | 29 W/m² | - |
| 1777733549 | 10.56° C | 86% | 1016.9 hPa | 0 mm | - | 30 W/m² | - |
| 1777733245 | 10° C | 86% | 1016.9 hPa | 0 mm | - | 43 W/m² | - |
| 1777732942 | 10° C | 86% | 1017.1 hPa | 0 mm | - | 56 W/m² | - |
| 1777732638 | 10° C | 86% | 1016.8 hPa | 0 mm | - | 64 W/m² | - |
* Rain latest hour (hover to see other rain measurements)
** Current wind speed in m/s (hover to see current wind gust speed)